Regional Weather Roundup
Issued by NWS Little Rock, AR

Home | Current Version | Previous Version | Graphics & Text | Print | Product List | Glossary On
Versions: 1 2 3 4 5 6 7 8 9 10 11 12 13 14 15 16 17 18 19 20 21 22 23 24 25 26 27 28 29 30 31 32 33 34 35 36 37 38 39 40 41 42 43 44 45 46 47 48 49 50
000
ASUS44 KLZK 192105
RWRLZK

WEATHER ROUNDUP FOR ARKANSAS
NATIONAL WEATHER SERVICE LITTLE ROCK AR
300 PM CST FRI DEC 19 2014

NOTE: "FAIR" INDICATES FEW OR NO CLOUDS BELOW 12,000 FEET WITH NO
SIGNIFICANT WEATHER AND/OR OBSTRUCTIONS TO VISIBILITY.

ARZ001-003-010-029-192200-
NORTHWEST ARKANSAS

CITY           SKY/WX    TMP DP  RH WIND       PRES   REMARKS
FAYETTEVILLE   CLOUDY    42  40  92 CALM      30.17S
FORT SMITH     CLOUDY    44  38  79 E7        30.19S HAZE
HARRISON       CLOUDY    37  37 100 E5        30.18R FOG
BENTONVILLE    CLOUDY    41  37  87 CALM      30.18R
ROGERS         CLOUDY    39  39 100 N3        30.17S FOG
SILOAM SPGS    CLOUDY    41  36  81 N5        30.18S
HIGHFILL       CLOUDY    42  40  92 N3        30.17R
SPRINGDALE     CLOUDY    41  39  93 CALM      30.18S
$$

ARZ004-005-016-192200-
NORTH CENTRAL ARKANSAS

CITY           SKY/WX    TMP DP  RH WIND       PRES   REMARKS
BATESVILLE     CLOUDY    41  34  75 NE3       30.21F
FLIPPIN        CLOUDY    37  32  81 E5        30.20S
MTN HOME       CLOUDY    37  34  89 E5        30.19S
$$

ARZ040-041-192200-
WEST CENTRAL ARKANSAS

CITY           SKY/WX    TMP DP  RH WIND       PRES   REMARKS
MENA           CLOUDY    45  43  93 E5        30.16S
MOUNT IDA      CLOUDY    43  40  89 E3        30.15R
$$

ARZ009-017-025-026-028-192200-
NORTHEAST ARKANSAS

CITY           SKY/WX    TMP DP  RH WIND       PRES   REMARKS
CORNING        FAIR      39  32  75 NE8       30.25R
JONESBORO      CLOUDY    41  33  73 NE7       30.24R
NEWPORT        CLOUDY    41  36  82 NE13      30.24R
WALNUT RIDGE   CLOUDY    41  32  70 NE7       30.24S
BLYTHEVILLE    CLOUDY    41  31  67 NE10      30.23F
NW BLYTHEVILLE CLOUDY    41  32  70 NE8       30.23
$$

ARZ022-023-033-042-044-192200-
CENTRAL ARKANSAS

CITY           SKY/WX    TMP DP  RH WIND       PRES   REMARKS
LITTLE ROCK    CLOUDY    44  38  79 E6        30.21S
N LITTLE ROCK  CLOUDY    42  40  96 E9        30.21S
JACKSONVILLE   CLOUDY    42  38  87 NE7       30.19F
SEARCY         LGT RAIN  41  36  82 E7        30.22F
HOT SPRINGS    CLOUDY    43  40  89 NE3       30.19R
RUSSELLVILLE   CLOUDY    45  37  73 E6        30.18F
CLINTON        CLOUDY    41  37  87 CALM      30.21S HAZE
$$

ARZ036-192200-
EAST ARKANSAS

CITY           SKY/WX    TMP DP  RH WIND       PRES   REMARKS
WEST MEMPHIS   CLOUDY    44  36  73 E9        30.19F
$$

ARZ050-053-066-070-073-192200-
SOUTHWEST ARKANSAS

CITY           SKY/WX    TMP DP  RH WIND       PRES   REMARKS
ARKADELPHIA    MOCLDY    45  44  96 NE8       30.19F
CAMDEN         CLOUDY    46  41  81 MISG      30.16R
TEXARKANA      CLOUDY    46  43  89 NE8       30.15F
EL DORADO      CLOUDY    46  44  93 N8        30.16R
DE QUEEN       CLOUDY    45  43  93 NE6       30.16S FOG
$$

ARZ056-057-069-192200-
SOUTHEAST ARKANSAS

CITY           SKY/WX    TMP DP  RH WIND       PRES   REMARKS
PINE BLUFF     CLOUDY    46  38  73 N8        30.18F
STUTTGART      CLOUDY    43  37  81 N9        30.21R
MONTICELLO     LGT RAIN  46  43  89 VRB7      30.15F

$$




USA.gov is the U.S. government's official web portal to all federal, state and local government web resources and services.